カタログに戻る

STARLINK-35803

運用中通信VLEO
NORAD 66568·PAYLOAD·🇺🇸 United States

打ち上げ Nov 21, 2025 から Cape Canaveral Space Force Station

Loading…

次のパス (今後24時間)

TLE

最新Source: CelesTrak SupGP

元期: Sep 15, 2026, 03:43 UTC

1 66568C 25268M   26258.15534722  .00044966  00000+0  16288-2 0  2589
2 66568  43.0031 356.7039 0001610 269.5837 325.9434 15.27554233    13

AllMySatでSTARLINK-35803をリアルタイム追跡

Download on the App Store